www.pogodaiklimat.ru

Погода и климат >> Архив погоды >> Россия >> Камчатский край >> Озерная


ПОГОДА в Озерной

  • Прогноз погоды в Озерной
  • Монитор погоды в Озерной

АРХИВ ПОГОДЫ в Озерной

Время (UTC), дата Ветер
(напр.,м/с)
 
Видим.   Явления Облачность Т
(С)
Тd
(С)
f
(%)
Тe
(С)
Тes
(С)
Комфортность P
(гПа)
Po
(гПа)
Тmin
(С)
Tmax
(С)
R
(мм)
R24
(мм)
S
(см)
03 15.04 СЗ 3 50 км 6/3 1000 м
[Sc Ci fib]
+1.5 -5.9 58 -2 +4 1019.2 1015.6
06 15.04 СВ 2 20 км 9/9 600 м
[Sc]
+2.1 -5.4 58 -1 -0 1019.2 1015.6
09 15.04 В 1 20 км 9/6 600 м
[Sc Ci fib]
+1.0 -4.0 69 -1 -1 1020.0 1016.4 +3.6
12 15.04 В 2 20 км 9/9 600 м
[Sc]
0.0 -4.3 73 -3 -3 1020.3 1016.7
15 15.04 В 3 20 км 9/9 600 м
[Sc]
-0.6 -4.6 74 -5 -5 1019.6 1016.0
18 15.04 ЮВ 3 20 км 9/8 600 м
[Sc Ci fib]
+0.6 -4.1 71 -4 -4 1018.7 1015.1
21 15.04 В 6
{10}
20 км 9/9 600 м
[Sc]
+2.5 -2.0 72 -3 -3 1018.4 1014.8 -1.7 4
00 16.04 В 9-12
{14}
50 км 9/5 600 м
[Sc Ci fib]
+3.4 -0.6 75 -3 -3 1017.1 1013.6
03 16.04 В 10-14
{16}
50 км 9/6 600 м
[Sc Ac trans]
+4.8 -1.1 66 -1 -1 1014.5 1010.9
06 16.04 В 11-14
{21}
10 км слаб. ливневой дождь 10/10 300 м
[Cb cap]
+2.4 0.0 84 -5 -5 1013.3 1009.7
09 16.04 В 14-20
{20}
10 км слаб. ливневой дождь 10/10 300 м
[Cb cap]
+5.0 -0.3 69 -2 -2 1010.9 1007.4 +5.3 0.0
12 16.04 В 19-27
{29}
10 км слаб. ливневой дождь 10/10 300 м
[Cb cap]
+4.0 -0.3 74 -5 -5 1008.7 1005.2
15 16.04 В 23-33
{33}
10 км слаб. ливневой дождь 10/10 300 м
[Cb cap]
+2.7 -0.0 82 -7 -7 1004.6 1001.1
18 16.04 В 13-20
{35}
10 км слаб. ливневой дождь 10/10 300 м
[Cb cap]
+3.2 0.0 80 -5 -5 1007.0 1003.5
21 16.04 В 12-17
{21}
10 км слаб. ливневой дождь 10/10 300 м
[Cb cap]
+2.9 -0.2 80 -5 -5 1007.0 1003.5 +2.2 0.4 0
00 17.04 В 11-16
{30}
10 км слаб. ливневой дождь 10/10 200 м
[Cb cap]
+2.5 +0.2 85 -5 -5 1007.4 1003.9
03 17.04 В 14-20
{21}
10 км слаб. ливневой дождь 9/9 300 м
[Cb cap]
+2.2 -0.4 83 -6 -6 1007.6 1004.0
06 17.04 В 18-25
{33}
4000 м слаб. ливневой снег 10/10 300 м
[Cb cap]
+2.1 -0.5 83 -7 -7 1006.8 1003.2
09 17.04 В 15-24
{27}
20 км {ливн. осадки} 10/10 600 м
[Cb calv]
+2.0 -0.9 81 -7 -7 1009.3 1005.7 +2.9 0.3
12 17.04 В 16-23
{24}
20 км {ливн. осадки} 4/4 1000 м
[Sc]
+2.5 -1.5 75 -6 -6 1011.1 1007.6
15 17.04 В 13-17
{24}
20 км 8/8 600 м
[Sc]
+2.5 -2.1 72 -5 -5 1014.0 1010.4
18 17.04 В 12-18
{19}
20 км 8/8 600 м
[Sc]
+2.5 -2.3 71 -5 -5 1015.6 1012.0
21 17.04 ЮВ 6
{20}
50 км 6/4 600 м
[Sc Ci fib]
+1.4 -0.9 85 -5 -4 1018.9 1015.3 +1.1 0
00 18.04 Ю 5 50 км 3/0
[Ci fib]
+2.5 -0.3 82 -3 +3 1020.8 1017.2
03 18.04 ЮВ 3 50 км 3/0
[Ci fib]
+3.5 +0.1 78 -0 +9 1021.5 1017.9
06 18.04 ЮВ 2 50 км 3/0
[Ci fib]
+3.1 0.0 80 0 +4 1022.7 1019.1
09 18.04 ЮВ 2 50 км 4/0
[Ci fib]
+0.4 -0.6 93 -3 -3 1024.2 1020.6 +3.9
12 18.04 ЮВ 2 20 км 3/0
[Ci fib]
+0.4 -2.6 80 -3 -3 1024.4 1020.8
15 18.04 В 7
{11}
20 км 3/0
[Ci fib]
+0.6 -3.7 73 -6 -6 1023.4 1019.7
18 18.04 В 6 20 км 6/0
[Ci fib]
+0.3 -4.1 72 -6 -6 1024.0 1020.4
21 18.04 В 5-10
{10}
50 км 9/0
[Ci fib]
+1.6 -3.1 71 -4 -2 1024.5 1020.9 -0.8 0
00 19.04 ЮВ 5
{10}
50 км 6/0
[Ci fib]
+3.7 -2.7 63 -1 +5 1024.8 1021.2
03 19.04 В 8-10
{11}
50 км ясно +3.4 -2.6 65 -3 -0 1024.8 1021.2
06 19.04 В 5
{11}
50 км 3/0
[Ci fib]
+2.7 -2.6 68 -2 -0 1025.0 1021.4
09 19.04 СВ 4
{10}
50 км 3/0
[Ci fib]
+1.1 -2.7 76 -4 -4 1025.8 1022.2 +4.9
12 19.04 ЮВ 3
{10}
20 км ясно +1.1 -4.2 68 -3 -3 1025.9 1022.2
15 19.04 В 2 20 км 3/0
[Ci fib]
-0.2 -4.6 72 -4 -4 1025.9 1022.2
18 19.04 СВ 2 20 км 3/0
[Ci fib]
+0.4 -4.6 69 -3 -3 1026.5 1022.8
21 19.04 Ю 2 50 км 3/0
[Ci fib]
+1.7 -4.1 65 -1 +2 1027.6 1024.0 -1.5 0
00 20.04 СЗ 4 50 км 5/0
[Ci fib]
+3.1 -3.5 62 -1 +6 1027.3 1023.7
03 20.04 С 4 50 км 3/1 600 м
[Sc Ci fib]
+3.9 -3.7 58 0 +7 1027.1 1023.5
06 20.04 СЗ 4 50 км 8/6 600 м
[Sc Ci fib]
+3.0 -3.5 62 -1 -0 1027.2 1023.6
09 20.04 В 1 50 км 9/3 600 м
[Sc Ci fib]
+0.2 -4.3 72 -2 -2 1027.7 1024.1 +4.8
12 20.04 В 3 20 км 4/4 600 м
[Sc]
-1.5 -4.8 78 -6 -6 1027.6 1024.0
15 20.04 В 4 20 км 9/9 600 м
[Sc]
+1.7 -4.7 62 -3 -3 1027.1 1023.4
18 20.04 Ю 5 20 км 10/10 600 м
[Sc]
+1.3 -4.2 67 -4 -4 1025.9 1022.3
21 20.04 ЮВ 5
{11}
50 км 9/9 600 м
[Sc]
+1.5 -4.0 67 -4 -4 1026.1 1022.5 -2.5 0
00 21.04 ЮВ 6
{10}
50 км 9/9 600 м
[Cb calv]
+2.5 -3.4 65 -3 -3 1025.8 1022.2
03 21.04 ЮВ 9-12
{13}
50 км 9/9 600 м
[Sc]
+2.9 -3.3 64 -4 -4 1024.5 1020.9
06 21.04 ЮВ 8-11
{13}
50 км 9/9 600 м
[Sc]
+2.5 -2.5 70 -4 -4 1024.0 1020.4
09 21.04 Ю 8
{14}
20 км в посл. час ливневой снег 9/9 600 м
[Cb calv]
+1.9 -2.3 74 -5 -5 1024.3 1020.7 +3.6 0.0
12 21.04 ЮВ 7-10
{12}
20 км {ливн. осадки} 9/9 600 м
[Sc]
+2.1 -3.3 67 -4 -4 1024.2 1020.6
15 21.04 ЮВ 7-10
{14}
20 км 9/9 600 м
[Sc]
+2.1 -3.1 68 -4 -4 1023.8 1020.2
18 21.04 ЮВ 8-13
{13}
20 км 9/9 600 м
[Sc]
+2.5 -2.3 71 -4 -4 1022.1 1018.5
21 21.04 СВ 2
{13}
50 км 9/9 600 м
[Sc]
+3.7 -2.3 65 +1 +2 1021.9 1018.3 +1.2 0
00 22.04 ЮВ 3 50 км 9/9 600 м
[Sc]
+5.3 -0.7 65 +2 +3 1021.8 1018.2

 

Местоположение метеостанции Озерная (Камчатский край, Россия): широта 51.48 долгота 156.40 высота над уровнем моря 28 м.

В архиве по умолчанию представлена погода в Озерной за последнюю неделю. Архивные данные за месяц целиком и за предыдущие месяцы, начиная с января 2011 года, Вы можете получить, выбрав интересующий диапазон дат из раскрывающегося списка и нажав кнопку "Ввод!".


*Определитесь, кто Вы:
робот инопланетянин человек

Внимание! Время в таблицах - всемирное. Для получения местного времени необходимо прибавить поправку, которая равна 12 ч.

Смотрите также архив погоды в соседних городах и на ближайших метеорологических станциях:

Погода на Мысе Лопатка (Камчатский край, Россия) (69 км)
Погода в Северо-Курильске (Сахалинская область, Россия) (91 км)
Погода в Водопадной (Камчатский край, Россия) (117 км)
Погода в Большерецке (Камчатский край, Россия) (150 км)
Погода в Начиках (Камчатский край, Россия) (203 км)
Погода в Петропавловск-Камчатском (Камчатский край, Россия) (215 км)
Погода в Сосновке (Камчатский край, Россия) (220 км)
Погода в Петропавловском Маяке (Камчатский край, Россия) (221 км)
Погода в Петропавловск-Камч. 2 (Камчатский край, Россия) (228 км)
Погода в Соболево (Камчатский край, Россия) (315 км)

Пояснения к столбцам:

Ветер - указаны скорость ветра в м/с - средняя за 10 мин, порывы в срок и между сроками (в фигурных скобках) и направление, откуда дует ветер: С - северный, СВ - северо-восточный, В - восточный, ЮВ - юго-восточный, Ю - южный, ЮЗ - юго-западный, З - западный, СЗ - северо-западный.
Видимость - горизонтальная дальность видимости в метрах или километрах. При видимости от 1 до 10 км при отсутствии осадков обычно наблюдается дымка, при ухудшении видимости до 1 км и менее - туман. В сухую погоду видимость может ухудшаться дымом, пылью или мглою.
Явления - указаны атмосферные явления, наблюдавшиеся в срок или в последний час перед сроком; фигурными скобками обозначены явления, наблюдавшиеся между сроками (за 1-3 часа до срока); квадратными скобками обозначены град или гололедные отложения с указанием их диаметра в мм.
Облачность - указаны через наклонную черту общая и нижняя облачность в баллах и высота нижней границы облаков в метрах; квадратными скобками обозначены формы облаков: Ci - перистые, Cs - перисто-слоистые, Cc - перисто-кучевые, Ac - высококучевые, As - высокослоистые, Sc - слоисто-кучевые, Ns - слоисто-дождевые, Cu - кучевые, Cb - кучево-дождевые. Подробнее классификацию облаков см. в Атласе облаков (PDF).
T - Температура воздуха - температура, измеренная на высоте 2 м над землей.
Td - Температура точки росы - температура, при понижении до которой содержащийся в воздухе водяной пар достигнет насыщения.
f - Относительная влажность воздуха - влажноcть воздуха, измеренная на высоте 2 м над землей.
Te - Эффективная температура - температура, которую ощущает одетый по сезону человек в тени. Характеристика душности погоды. При расчете учитывается влияние влажности воздуха и скорости ветра на теплоощущения человека.
Tes - Эффективная температура на солнце - температура, которую ощущает человек, с поправкой на солнечный нагрев. Характеристика знойности погоды. Зависит от высоты солнца над горизонтом, облачности и скорости ветра. Ночью, в пасмурную погоду, а также при ветре 12 м/с и более поправка равна нулю.
P - Атмосферное давление - приведенное к уровню моря атмосферное давление.
Po - Атмосферное давление - измеренное на уровне метеостанции атмосферное давление.
Tmin - Минимальная температура - минимум температуры воздуха на высоте 2 м над землей.
Tmax - Максимальная температура - максимум температуры воздуха на высоте 2 м над землей.
R - Количество осадков - Количество выпавших осадков за период времени, мм. При наведении курсора мыши на число - период времени, за который выпало указанное количество осадков.
R24 - Количество осадков - Количество выпавших осадков за 24 часа, мм.
S - Снежный покров - Высота снежного покрова, см. При наведении курсора мыши на число - состояние снежного покрова и степень покрытия местности в баллах.